Regional Weather Roundup
Issued by NWS

Home | Current Version | Previous Version | Graphics & Text | Print | Product List | Glossary On
Versions: 1 2 3 4 5 6 7 8 9 10 11 12 13 14 15 16 17 18 19 20 21 22 23 24 25 26 27 28 29 30 31 32 33 34 35 36 37 38 39 40 41 42 43 44 45 46 47 48 49 50
396
ASUS43 KFSD 160610
RWRSD

WEATHER ROUNDUP FOR SOUTH DAKOTA
NATIONAL WEATHER SERVICE SIOUX FALLS SD
1200 AM CST MON JAN 16 2017

NOTE: "FAIR" INDICATES FEW OR NO CLOUDS BELOW 12,000 FEET WITH NO
SIGNIFICANT WEATHER AND/OR OBSTRUCTIONS TO VISIBILITY.


SDZ001>005-009-010-012>017-160700-
NORTHWEST AND NORTH CENTRAL SOUTH DAKOTA

CITY           SKY/WX    TMP DP  RH WIND       PRES   REMARKS
BUFFALO          N/A     22   9  57 W5        29.97R WCI  16
FAITH            N/A     11   6  81 W7        30.04F WCI   0
MOBRIDGE       CLOUDY     3  -4  72 SE7       30.06S WCI  -9
$$

SDZ012>016-024>037-041>051-057-063-072>074-160700-
SOUTHWEST AND SOUTH CENTRAL SOUTH DAKOTA

CITY           SKY/WX    TMP DP  RH WIND       PRES   REMARKS
RAPID CTY ARPT CLOUDY    22   9  57 N10       30.04R WCI  11
PIERRE         CLOUDY     9   6  88 NW3       30.09S
CUSTER         CLOUDY    24  13  62 N5        30.01R WCI  18
ELLSWORTH AFB  CLOUDY    22  10  62 NW7       30.03S WCI  13
PHILIP         CLOUDY     9   6  88 NW8       30.08S WCI  -3
PINE RIDGE     CLOUDY    19  17  92 E3        30.03R
SPEARFISH      FAIR      27  14  59 SW5       30.04R WCI  21
WINNER         FAIR      23  19  85 NW5       30.06F WCI  17
$$

SDZ004>011-016>023-039-040-160700-
NORTHEAST SOUTH DAKOTA

CITY           SKY/WX    TMP DP  RH WIND       PRES   REMARKS
ABERDEEN       CLOUDY    -1  -6  79 S7        30.11F WCI -14
WATERTOWN      CLOUDY    17  14  88 S7        30.10S FOG     WCI   8
BROOKINGS      CLOUDY    11   8  88 CALM      30.12S
SISSETON         N/A     29  22  75 S9        30.08F WCI  20
$$

SDZ017-020-022-023-036>040-048>070-160700-
SOUTHEAST SOUTH DAKOTA

CITY           SKY/WX    TMP DP  RH WIND       PRES   REMARKS
SIOUX FALLS    CLOUDY    23  18  81 CALM      30.13S
HURON          CLOUDY     9   7  92 CALM      30.12S
CHAMBERLAIN    CLOUDY    20  16  84 N6        30.09S WCI  12
MITCHELL       CLOUDY    21  17  84 E3        30.13S
YANKTON        CLOUDY    28  19  69 SE3       30.11F
$$

ABBREVIATIONS USED IN REMARKS
   TC - TEMPERATURE IN CELSIUS
  WCI - WIND CHILL INDEX
   HX - HEAT INDEX
  VSB - VISIBILITY





USA.gov is the U.S. government's official web portal to all federal, state and local government web resources and services.